Regional Weather Roundup
Issued by NWS

Home | Current Version | Previous Version | Graphics & Text | Print | Product List | Glossary On
Versions: 1 2 3 4 5 6 7 8 9 10 11 12 13 14 15 16 17 18 19 20 21 22 23 24 25 26 27 28 29 30 31 32 33 34 35 36 37 38 39 40 41 42 43 44 45 46 47 48 49 50
000
ASUS43 KDTX 200101
RWRMI
MICHIGAN HOURLY REGIONAL WEATHER ROUNDUP
NATIONAL WEATHER SERVICE DETROIT/PONTIAC MI
800 PM EST SUN FEB 19 2017

NOTE: "FAIR" INDICATES FEW OR NO CLOUDS BELOW 12,000 FEET WITH NO
SIGNIFICANT WEATHER AND/OR OBSTRUCTION TO VISIBILITY.

MIZ047>049-052>055-059>063-066>070-074>076-081>083-200200-
SOUTHEAST LOWER MICHIGAN

CITY           SKY/WX    TMP DP  RH WIND       PRES   REMARKS
ADRIAN         CLEAR     50  31  48 CALM      30.10R
ALMA           CLEAR     39  33  77 CALM      30.11R
ANN ARBOR      PTCLDY    44  31  60 CALM      30.09R
BAD AXE        CLEAR     36  28  73 CALM      30.13R
CARO           CLEAR     37  33  84 CALM      30.10R
DETROIT CITY   PTCLDY    52  31  44 NE5       30.10R
DETROIT        PTCLDY    55  28  35 N5        30.10R
FLINT          CLOUDY    41  32  70 CALM      30.10R
GROSSE ILE     CLOUDY    51  28  41 NE5       30.08R
HILLSDALE      CLEAR     46  30  53 CALM      30.09S
HOWELL         PTCLDY    50  29  44 CALM      30.09R

CITY           SKY/WX    TMP DP  RH WIND       PRES   REMARKS
JACKSON        CLEAR     51  27  39 CALM      30.09S
LAMBERTVILLE   CLOUDY    48  33  56 CALM      30.10R
LANSING        CLEAR     47  29  49 CALM      30.10R
LAPEER         FAIR      41  31  68 CALM      30.10R
MASON          CLEAR     50  33  51 CALM      30.09S
MONROE         CLOUDY    47  34  62 CALM      30.08S
MT. CLEMENS    PTCLDY    40  34  77 NE7       30.09R
PONTIAC        CLOUDY    43  31  62 CALM      30.08S
PORT HOPE        N/A     34  29  82 CALM      30.12R
PORT HURON     CLEAR     36  32  87 CALM      30.13R
TRI CITIES     PTCLDY    42  31  64 N5        30.11R
MIDLAND        FAIR      38  29  71 CALM      30.10R
TROY           PTCLDY    50  30  45 CALM      30.11S
SAGINAW HB     PTCLDY    43  32  65 NE3       30.10R
$$
MIZ043>046-050>051-056>058-064>065-071>073-077>080-200200-
SOUTHWEST LOWER MICHIGAN

CITY           SKY/WX    TMP DP  RH WIND       PRES   REMARKS
BATTLE CREEK   CLEAR     48  27  44 NW7       30.11R
BENTON HARBOR  CLOUDY    44  29  55 CALM      30.10R
BIG RAPIDS     CLEAR     41  26  55 CALM      30.09S
COLDWATER      CLEAR     51  26  38 CALM      30.10S
FREMONT        FAIR      45  28  50 CALM      30.10R
HOLLAND        CLOUDY    42  32  67 CALM      30.11R
GRAND RAPIDS   CLOUDY    49  29  46 W6        30.11R
IONIA          FAIR      51  28  41 W6        30.09R
KALAMAZOO      CLEAR     51  22  31 CALM      30.11R
LUDINGTON      PTCLDY    33  29  85 CALM      30.10R
MARSHALL       CLEAR     47  29  49 CALM      30.10R
MOUNT PLEASANT CLEAR     40  31  69 CALM      30.10R
MUSKEGON       CLOUDY    40  33  76 CALM      30.11R
SOUTH HAVEN    CLEAR     39  32  75 CALM      30.10S
$$
MIZ016>042-200200-
NORTHERN LOWER MICHIGAN

CITY           SKY/WX    TMP DP  RH WIND       PRES   REMARKS
ALPENA         PTCLDY    38  30  73 NW5       30.13R WCI  34
BEAVER ISLAND  PTCLDY    33  29  86 CALM      30.14S
BELLAIRE       PTCLDY    32  28  86 CALM      30.14R
CADILLAC       PTCLDY    38  29  71 CALM      30.10R
CHARLEVOIX     CLOUDY    33  29  85 CALM      30.17R
FRANKFORT      CLEAR     36  31  82 CALM      30.12R
GAYLORD        PTCLDY    39  26  59 VRB3      30.11R
GRAYLING       PTCLDY    34  30  83 NW3       30.12R
HARBOR SPRINGS PTCLDY    33  32  95 CALM      30.14R
HOUGHTON LAKE  CLEAR     39  28  64 CALM      30.11R
MANISTEE       CLEAR     35  29  78 CALM      30.11R
OSCODA         PTCLDY    32  26  78 W3        30.12R
PELLSTON       CLOUDY    36  28  73 NE3       30.14R
ROGERS CITY    MOCLDY    37  29  73 W3        30.14R
TRAVERSE CITY  MOCLDY    39  31  72 CALM      30.13R
$$
MIZ007>008-015-200200-
EASTERN UPPER MICHIGAN

CITY           SKY/WX    TMP DP  RH WIND       PRES   REMARKS
KINROSS        CLOUDY    34  28  79 N7        30.14R WCI  28
MACKINAC ISLAN CLOUDY    33  29  85 N3        30.13S
NEWBERRY       CLOUDY    33  29  85 N3        30.13S
S. S. MARIE    CLOUDY    36  28  73 NW7       30.14R WCI  30
MUNISING         N/A     33  32  96 S3        30.12F
$$
MIZ004>006-011>014-085-200200-
CENTRAL UPPER MICHIGAN

CITY           SKY/WX    TMP DP  RH WIND       PRES   REMARKS
MANISTIQUE     PTCLDY    32  31  97 CALM      30.13S
ESCANABA       PTCLDY    32  29  88 CALM      30.13R
MENOMINEE      CLOUDY    36  30  79 SE6       30.11R WCI  31
SAWYER-GWINN   CLEAR     34  28  80 CALM      30.11R
$$
MIZ001>003-009>011-084-200200-
WESTERN UPPER MICHIGAN

CITY           SKY/WX    TMP DP  RH WIND       PRES   REMARKS
IRON MOUNTAIN  PTCLDY    42  29  59 E5        30.07R
HOUGHTON       PTCLDY    33  28  81 E10       30.07S WCI  25
COPPER HARBOR    N/A     35  30  82 VRB3      30.09F
IRONWOOD       PTCLDY    46  30  53 E8        30.00R
$$

ABBREVIATIONS USED IN REMARKS
   TC - TEMPERATURE IN CELSIUS
  WCI - WIND CHILL INDEX
   HX - HEAT INDEX
  VSB - VISIBILITY




USA.gov is the U.S. government's official web portal to all federal, state and local government web resources and services.